CZ-6A DEB, 54312

Orbit data source: Space-Track

CZ-6A DEB, 54312 is space debris in SSO originally from a launch on Fri, 11 Nov 2022 UTC launched from the Taiyaun Space Center, China (TSC). Debris objects in space refer to the collection of defunct objects orbiting the Earth. Examples of debris include non-operational satellites, rocket bodies, and fragments generated from explosions, collisions, or faulty payload assembly.

Loading next visibility...
Identifier
54312, 2022-151BF
Orbit
SSO
Country
Flag of CNCN / PRC
Related business
Manufacturer
SAST
Mission
Spacecraft
Bus & Motor
Unknown
Mass
Unknown
Launch date (UTC)
2022-11-11 (4 years ago)
Launch vehicle
Unknown
Launch site
Taiyaun Space Center, China (TSC)
Object type
Payload
Rocket body
Debris
Shape & HBR
Unknown shape, 0.1 m
Radar Cross Section
Small (<0.1 m²)

Expand to show TLE details & history
Last TLE update: 1 day ago

TLE from 1 day ago
0 CZ-6A DEB
1 54312U 22151BF  26144.06066176  .00002202  00000-0  85969-3 0  9991
2 54312  98.8774 193.9687 0022851 202.2279 157.7914 14.30533968183069
Epoch: 2026-05-24T01:27Z
TLE epoch observation values (Epoch: 2026-05-24T01:27:21.176Z)
Latitude
-0.00001°
Longitude
-69.53776°
Altitude
808.043 km
Speed
7.441 km/s
True Right ascension
12h 55m 52s
True Declination
0° 00' 00"
Sunlit
Object was in full shadow at epoch
Visualization orbit readout
Latitude
Unknown
Longitude
Unknown
Altitude
Unknown
Speed
Unknown
Apparent Right ascension
Unknown
Apparent Declination
Unknown
Sunlit
N/A
Visualization observer readout
Local Sidereal Time
10:16:13
Azimuth
Unknown
Elevation
Unknown
Doppler factor
Unknown
Orbital elements
Apogee altitude
803.472 km
Perigee altitude
770.726 km
Semi-major axis
7,165.236 km
Eccentricity
0.00229
Inclination
98.8774°
RAAN
193.9687°
Arg. of periapsis
202.2279°
True anomaly
157.89011°
Mean anomaly
157.7914°
Eccentric anomaly
157.84078°
Mean motion
3.57847 °/min
Orbital period
100.6 mins
BSTAR
0.00085969
Loading maneuver chart data...
Computing Atmospheric mass density...
Loading historical data...
Loading historical data...
Loading historical data...
Loading historical data...
Loading historical data...
Loading historical data...
Loading historical data...

Documentation

Showing up to 5 results
|